Date String (YYYY-MM-DD hh:mm:ss) UTC,Instrument flags,Ambient pressure (hPa),Sample flow (lpm),Bypass flow (lpm),Sample temperature (°C),Ambient temperature (°C),ASC tube jacket temperature (°C),LED temperature (°C),Box temperature (°C),Sample RH (%),Span deviation,Mass concentration (μg/m³),Mass concentration (μg/m³),Mass concentration (μg/m³)
DateTimeUTC,F1_M11,P_M11,Q1_M11,Q2_M11,T1_M11,T2_M11,T3_M11,T4_M11,T5_M11,U1_M11,ZSPAN_M11,X0_M11,X2_M11,X1_M11
2023-03-13 08:00:00,,0826.2,5.00,0.00,22.6,21.1,00.0,31.3,24.2,12.9,0000.0,0007.81,0004.42,0004.16
2023-03-13 08:01:00,,0826.2,5.00,0.00,22.6,21.0,00.0,31.3,24.2,12.9,0000.0,0007.81,0004.44,0004.17
2023-03-13 08:02:00,,0826.2,4.99,0.00,22.5,20.9,00.0,31.3,24.2,12.9,0000.0,0007.88,0004.48,0004.19
2023-03-13 08:03:00,,0826.2,5.00,0.00,22.5,20.8,00.0,31.3,24.2,13.0,0000.0,0007.80,0004.49,0004.18
2023-03-13 08:04:00,,0826.2,5.00,0.00,22.5,20.8,00.0,31.3,24.2,13.0,0000.0,0007.53,0004.48,0004.18
2023-03-13 08:05:00,,0826.2,5.00,0.00,22.4,20.7,00.0,31.3,24.1,13.0,0000.0,0007.63,0004.51,0004.19
2023-03-13 08:06:00,,0826.2,5.00,0.00,22.4,20.7,00.0,31.3,24.0,13.1,0000.0,0007.66,0004.51,0004.19
2023-03-13 08:07:00,,0826.2,4.99,0.00,22.4,20.7,00.0,31.2,24.1,13.1,0000.0,0007.55,0004.52,0004.19
2023-03-13 08:08:00,,0826.2,4.99,0.00,22.4,20.7,00.0,31.2,24.1,13.1,0000.0,0007.15,0004.50,0004.18
2023-03-13 08:09:00,,0826.3,5.01,0.00,22.4,21.6,00.0,31.2,24.3,13.1,0000.0,0006.60,0004.47,0004.18
2023-03-13 08:10:00,,0826.3,4.98,0.00,22.6,22.7,00.0,31.2,24.5,13.0,0000.0,0006.49,0004.46,0004.18
2023-03-13 08:11:00,,0826.2,5.00,0.00,22.7,23.1,00.0,31.3,24.6,12.9,0000.0,0006.41,0004.43,0004.17
2023-03-13 08:12:00,,0826.2,5.00,0.00,22.7,22.7,00.0,31.3,24.6,12.8,0000.0,0006.33,0004.42,0004.17
2023-03-13 08:13:00,,0826.1,5.00,0.00,22.7,22.3,00.0,31.3,24.5,12.8,0000.0,0006.32,0004.42,0004.17
2023-03-13 08:14:00,,0826.1,5.00,0.00,22.7,21.9,00.0,31.3,24.4,12.8,0000.0,0006.38,0004.42,0004.18
2023-03-13 08:15:00,,0826.1,5.00,0.00,22.7,21.7,00.0,31.3,24.4,12.8,0000.0,0006.56,0004.45,0004.19
2023-03-13 08:16:00,,0826.1,5.00,0.00,22.6,21.5,00.0,31.3,24.3,12.8,0000.0,0006.47,0004.44,0004.20
2023-03-13 08:17:00,,0826.2,5.02,0.00,22.6,21.3,00.0,31.3,24.3,12.8,0000.0,0006.54,0004.47,0004.22
2023-03-13 08:18:00,,0826.2,5.01,0.00,22.6,21.2,00.0,31.3,24.3,12.8,0000.0,0006.67,0004.48,0004.22
2023-03-13 08:19:00,,0826.2,5.00,0.00,22.6,21.1,00.0,31.3,24.2,12.8,0000.0,0006.76,0004.49,0004.22
2023-03-13 08:20:00,,0826.2,5.01,0.00,22.6,21.0,00.0,31.3,24.2,12.8,0000.0,0006.91,0004.51,0004.23
2023-03-13 08:21:00,,0826.2,5.00,0.00,22.5,20.9,00.0,31.3,24.2,12.8,0000.0,0006.96,0004.53,0004.23
2023-03-13 08:22:00,,0826.2,5.00,0.00,22.5,20.9,00.0,31.3,24.2,12.9,0000.0,0007.00,0004.56,0004.25
2023-03-13 08:23:00,,0826.2,5.00,0.00,22.5,20.8,00.0,31.3,24.2,12.9,0000.0,0007.04,0004.56,0004.25
2023-03-13 08:24:00,,0826.2,5.00,0.00,22.5,20.8,00.0,31.3,24.1,12.9,0000.0,0007.05,0004.56,0004.27
2023-03-13 08:25:00,,0826.2,5.00,0.00,22.4,20.7,00.0,31.3,24.1,12.9,0000.0,0007.04,0004.56,0004.27
2023-03-13 08:26:00,,0826.2,5.00,0.00,22.4,20.7,00.0,31.2,24.1,12.9,0000.0,0006.98,0004.56,0004.27
2023-03-13 08:27:00,,0826.2,5.00,0.00,22.4,20.7,00.0,31.2,24.1,12.9,0000.0,0007.74,0004.56,0004.27
2023-03-13 08:28:00,,0826.2,5.02,0.00,22.4,21.4,00.0,31.2,24.2,12.9,0000.0,0007.97,0004.56,0004.27
2023-03-13 08:29:00,,0826.2,5.00,0.00,22.5,22.4,00.0,31.2,24.5,12.8,0000.0,0008.38,0004.56,0004.28
2023-03-13 08:30:00,,0826.2,5.02,0.00,22.7,23.1,00.0,31.2,24.6,12.7,0000.0,0008.39,0004.58,0004.29
2023-03-13 08:31:00,,0826.2,4.99,0.00,22.7,22.8,00.0,31.3,24.6,12.6,0000.0,0008.41,0004.60,0004.31
2023-03-13 08:32:00,,0826.2,4.99,0.00,22.7,22.4,00.0,31.3,24.6,12.6,0000.0,0008.38,0004.60,0004.31
2023-03-13 08:33:00,,0826.2,5.00,0.00,22.7,22.1,00.0,31.3,24.5,12.6,0000.0,0008.36,0004.60,0004.33
2023-03-13 08:34:00,,0826.2,5.01,0.00,22.7,21.8,00.0,31.3,24.5,12.6,0000.0,0008.31,0004.59,0004.33
2023-03-13 08:35:00,,0826.2,4.99,0.00,22.7,21.6,00.0,31.3,24.4,12.6,0000.0,0008.29,0004.59,0004.34
2023-03-13 08:36:00,,0826.1,5.01,0.00,22.7,21.4,00.0,31.3,24.4,12.6,0000.0,0008.29,0004.60,0004.35
2023-03-13 08:37:00,,0826.2,5.01,0.00,22.6,21.3,00.0,31.3,24.4,12.6,0000.0,0008.24,0004.60,0004.36
2023-03-13 08:38:00,,0826.2,4.97,0.00,22.6,21.2,00.0,31.3,24.3,12.6,0000.0,0007.75,0004.62,0004.37
2023-03-13 08:39:00,,0826.2,5.00,0.00,22.6,21.1,00.0,31.3,24.3,12.6,-000.5,0007.68,0004.61,0004.38
2023-03-13 08:40:00,,0826.2,5.00,0.00,22.6,21.0,00.0,31.3,24.3,12.6,-000.8,0007.01,0004.58,0004.37
2023-03-13 08:41:00,,0826.2,5.00,0.00,22.5,20.9,00.0,31.3,24.2,12.6,-000.7,0006.91,0004.56,0004.37
2023-03-13 08:42:00,,0826.2,5.01,0.00,22.5,20.9,00.0,31.3,24.2,12.6,0000.0,0006.79,0004.55,0004.37
2023-03-13 08:43:00,,0826.2,5.00,0.00,22.5,20.8,00.0,31.3,24.2,12.7,0000.0,0006.80,0004.56,0004.37
2023-03-13 08:44:00,,0826.2,5.01,0.00,22.5,20.8,00.0,31.3,24.1,12.7,-000.2,0006.87,0004.57,0004.37
2023-03-13 08:45:00,,0826.2,4.98,0.00,22.4,20.7,00.0,31.3,24.1,12.7,0000.0,0007.02,0004.60,0004.38
2023-03-13 08:46:00,,0826.1,5.00,0.00,22.4,20.7,00.0,31.3,24.1,12.7,-001.0,0007.38,0004.61,0004.39
2023-03-13 08:47:00,,0826.1,5.00,0.00,22.4,20.7,00.0,31.2,24.1,12.8,-000.8,0008.16,0004.62,0004.39
2023-03-13 08:48:00,,0826.2,5.00,0.00,22.4,21.2,00.0,31.2,24.2,12.9,0000.0,0008.16,0004.62,0004.39
2023-03-13 08:49:00,,0826.2,5.01,0.00,22.5,22.2,00.0,31.2,24.4,12.8,0000.0,0008.14,0004.61,0004.39
2023-03-13 08:50:00,,0826.2,5.00,0.00,22.6,23.0,00.0,31.2,24.7,12.7,0000.0,0008.06,0004.61,0004.38
2023-03-13 08:51:00,,0826.2,5.00,0.00,22.7,22.9,00.0,31.3,24.7,12.7,0000.0,0008.04,0004.64,0004.40
2023-03-13 08:52:00,,0826.1,4.98,0.00,22.7,22.4,00.0,31.3,24.6,12.6,-002.2,0008.13,0004.66,0004.41
2023-03-13 08:53:00,,0826.1,4.99,0.00,22.7,22.1,00.0,31.3,24.5,12.6,-000.6,0008.97,0004.67,0004.41
2023-03-13 08:54:00,,0826.2,5.00,0.00,22.7,21.9,00.0,31.3,24.5,12.6,0000.0,0009.17,0004.69,0004.41
2023-03-13 08:55:00,,0826.2,5.00,0.00,22.7,21.6,00.0,31.3,24.4,12.7,0000.0,0009.19,0004.68,0004.41
2023-03-13 08:56:00,,0826.2,5.01,0.00,22.7,21.5,00.0,31.3,24.4,12.7,0000.0,0009.29,0004.70,0004.43
2023-03-13 08:57:00,,0826.2,5.01,0.00,22.7,21.3,00.0,31.4,24.4,12.7,0000.0,0009.12,0004.74,0004.44
2023-03-13 08:58:00,,0826.2,5.00,0.00,22.6,21.2,00.0,31.3,24.4,12.7,0000.0,0008.46,0004.76,0004.44
2023-03-13 08:59:00,,0826.1,5.00,0.00,22.6,21.1,00.0,31.3,24.3,12.8,0000.0,0008.46,0004.76,0004.45
